Location: Dampvalley
(47.9094°N, 6.1967°E)
Time: 01:44:40
(UTC+00:00)

SO-50 - Pass Details

Date: 02 December 2021
Orbit: 595 x 689 km, 64.6° (Epoch: 24 January)

Event Time Altitude Azimuth Distance (km) Brightness Sun altitude
Rises 18:47:18 0° 302° (WNW) 3,036 ? -29.8°
Reaches altitude 10° 18:51:55 10° 262° (W) 2,131 ? -30.6°
Maximum altitude 18:52:38 10° 253° (WSW) 2,110 ? -30.7°
Drops below altitude 10° 18:53:23 10° 245° (WSW) 2,132 ? -30.9°
Sets 18:58:01 0° 204° (SSW) 3,047 ? -31.6°
